Wind_Speed
33 33 33 33 33 33 32 33 33 33 34 33 32 32 30 30 30 30 29 29 29 30 29 28 27 26 24 23 24 20 17 19 25 31 33 32 33 35 35 34 32 31 30 28 28 28 27 26 25 25 26 26 26 25 26 26 26 26 27 28 28 28 27 27 27 27 27 26 26 26 26 26 26 26
34 34 34 34 33 33 33 33 33 34 34 34 34 34 32 31 31 31 31 30 30 30 31 30 29 28 27 25 24 24 22 19 16 20 29 33 32 33 35 36 34 31 31 30 29 28 27 27 27 26 26 26 26 26 26 27 27 28 28 28 29 29 28 28 27 28 28 27 26 26 26 27 26 26
35 35 35 35 35 35 35 34 34 35 34 35 35 35 34 33 32 32 32 31 31 31 31 32 32 31 29 28 27 25 24 23 19 16 20 28 33 34 34 35 35 33 33 32 31 30 29 29 30 29 28 28 27 26 27 27 28 29 29 29 29 29 29 28 28 29 29 27 27 26 26 27 26 26
35 35 35 36 36 36 36 36 36 36 36 36 36 36 36 35 33 32 33 32 32 32 32 32 33 33 32 30 29 28 26 25 24 21 17 19 26 33 36 35 34 34 35 35 34 32 32 32 32 32 31 30 28 27 27 27 28 29 29 28 29 29 29 29 29 29 29 28 27 26 26 26 26 26
34 34 34 35 35 36 36 37 37 37 37 37 37 36 36 36 35 34 33 33 33 33 33 33 33 34 34 33 31 30 29 27 26 25 22 18 15 21 30 34 34 34 35 35 36 35 33 34 34 34 33 31 30 29 28 28 28 28 28 28 28 28 28 29 28 28 28 28 28 27 27 26 25 26
34 34 34 33 34 35 36 37 38 38 38 38 37 37 37 37 37 36 34 33 33 34 34 34 34 34 34 34 34 32 31 30 28 26 25 23 17 14 21 26 28 34 37 36 37 36 35 35 35 35 33 31 31 31 30 29 29 29 29 29 29 29 28 28 28 28 28 28 27 26 27 27 26 26
35 34 34 33 33 33 35 36 37 38 38 38 38 38 38 37 37 37 36 35 33 34 35 35 35 36 35 35 35 34 33 32 31 29 27 27 24 21 23 21 18 25 30 32 36 37 37 38 37 37 35 32 33 33 31 31 31 31 31 31 32 31 30 30 29 29 29 27 27 26 26 27 26 26
36 35 34 34 33 33 34 35 36 37 38 38 38 38 38 38 38 38 37 36 34 34 35 36 36 36 36 36 35 35 36 34 34 33 30 30 28 28 29 23 16 16 17 23 35 38 38 40 39 38 38 35 35 34 32 32 33 33 33 33 33 32 31 32 30 30 30 28 28 27 27 27 26 27
35 35 35 34 33 33 33 34 34 35 36 38 38 38 38 37 38 38 37 37 36 34 34 35 36 36 36 37 36 36 36 36 36 35 34 33 32 32 32 28 23 19 16 17 26 32 36 42 40 39 39 38 37 35 34 34 34 34 34 33 33 33 32 33 32 31 31 31 30 29 28 28 27 27
32 33 34 34 33 32 32 33 34 34 35 36 37 38 38 37 37 37 37 36 36 35 34 34 35 36 36 36 37 37 37 37 37 37 36 36 35 34 33 31 29 29 24 18 17 20 28 38 42 41 40 39 39 38 36 36 35 35 35 34 34 34 34 33 33 33 33 32 32 31 30 30 29 29
28 29 30 31 32 31 31 31 32 33 34 34 35 36 37 38 37 36 36 36 35 35 35 35 35 36 36 36 36 36 37 37 37 38 37 38 37 36 36 34 33 34 31 25 20 16 18 27 36 41 42 40 40 40 38 38 37 36 35 35 35 35 35 34 34 34 35 34 34 33 33 33 32 31
25 26 26 27 28 29 29 29 29 31 32 33 33 34 36 37 37 37 36 35 35 34 35 35 35 35 36 36 36 36 36 36 37 37 37 38 38 38 37 37 36 35 33 32 28 21 20 25 28 34 42 43 40 40 40 39 39 38 37 36 37 37 36 36 35 35 36 36 35 35 35 34 33 32
23 24 24 25 25 26 26 27 27 27 28 30 31 32 33 35 36 36 36 35 34 34 34 34 35 36 36 36 36 35 35 35 35 36 36 37 38 38 38 38 38 37 36 35 34 30 30 31 28 27 36 43 42 40 40 40 40 40 39 39 39 39 39 39 38 38 37 36 36 36 35 35 34 33
21 22 23 23 24 24 24 24 24 25 25 26 28 29 30 32 33 34 35 34 34 33 33 33 34 35 35 36 36 35 35 35 34 34 34 35 36 37 38 39 39 39 38 37 37 35 34 34 32 28 30 39 44 42 41 41 41 40 41 40 40 41 41 41 41 40 39 38 37 36 36 35 35 35
20 20 21 21 22 23 23 23 23 23 23 24 24 25 27 28 30 32 33 33 32 32 32 32 33 34 34 34 35 35 34 34 34 34 33 33 34 35 36 38 38 39 40 39 38 38 36 35 36 33 28 31 40 43 42 42 42 41 40 41 42 42 42 42 42 42 41 40 39 38 37 37 37 37
20 20 19 20 20 21 22 23 23 22 22 23 23 23 24 26 27 29 31 31 31 31 32 32 32 32 33 33 33 34 34 34 34 33 33 32 32 33 34 36 37 38 40 40 40 40 39 38 37 36 32 29 33 40 43 43 42 42 41 42 43 43 42 42 42 42 42 41 40 40 39 39 40 39
20 20 19 19 19 19 20 21 22 22 22 22 22 22 23 24 25 27 29 29 30 30 30 31 31 31 31 32 32 33 34 34 34 34 33 32 32 32 33 34 35 36 38 40 41 41 42 41 39 38 37 33 31 34 40 42 42 42 42 43 44 43 43 43 43 43 43 43 42 42 41 41 41 41
20 20 19 19 19 18 19 19 20 21 21 21 22 22 23 23 24 26 27 28 28 29 29 29 29 30 30 30 31 32 33 34 34 34 33 33 33 32 32 33 33 35 36 38 40 41 42 43 42 40 40 39 35 31 32 36 39 41 42 43 44 45 45 44 44 44 44 45 45 44 44 43 42 41
20 20 20 19 19 18 18 19 19 19 20 21 21 21 22 23 24 25 26 27 27 27 28 28 28 28 29 30 30 31 32 33 33 33 32 32 32 32 32 32 33 34 35 36 38 40 41 42 43 42 41 42 41 36 32 30 32 36 39 40 42 45 47 46 45 45 45 46 46 46 45 45 44 43
21 21 20 19 19 18 18 18 18 19 19 20 20 21 21 22 23 24 25 26 26 26 27 27 27 28 28 29 29 30 31 31 32 32 32 31 31 31 32 32 32 33 34 35 37 38 40 41 42 43 43 43 43 42 39 35 31 32 36 38 39 43 46 46 47 47 47 46 47 47 47 47 46 45
21 21 20 20 19 18 18 18 18 18 18 19 19 20 21 21 22 23 24 25 25 26 26 26 26 27 27 28 29 29 29 30 31 32 32 31 31 31 31 32 32 33 33 34 36 37 39 40 41 43 44 45 45 43 42 41 38 36 35 35 37 41 44 46 48 49 49 49 48 47 47 48 48 48
21 21 20 20 19 19 18 18 17 17 18 18 19 20 20 21 22 23 24 24 25 25 26 26 26 26 27 27 28 28 28 29 30 30 31 31 31 30 31 31 32 32 32 33 34 36 38 39 40 42 43 45 46 45 44 43 44 43 40 37 37 37 37 41 47 50 50 50 50 49 48 48 50 51
18 19 19 19 19 19 19 18 18 18 18 18 18 19 20 21 22 22 23 24 25 25 26 26 26 26 27 27 28 28 28 28 29 29 30 31 31 30 30 31 31 31 32 32 33 34 36 38 39 40 42 44 45 46 45 44 44 46 46 45 42 38 33 32 37 45 50 51 51 51 50 48 49 51
16 16 17 17 18 19 19 19 19 19 19 18 18 19 20 21 22 22 23 24 25 25 26 27 27 27 27 28 28 28 28 29 29 29 30 30 30 30 30 31 30 30 31 31 32 33 34 36 37 38 40 42 43 44 45 45 45 45 47 48 47 45 40 33 31 35 43 50 53 53 51 50 50 51
17 16 16 15 15 17 18 19 19 19 19 19 19 19 20 20 21 22 23 23 24 25 26 27 28 28 28 28 29 29 29 30 30 30 30 30 30 31 31 31 31 31 31 31 31 32 33 34 35 37 38 39 41 43 44 44 45 46 47 47 47 48 48 44 39 34 34 41 49 54 54 53 52 52
17 16 16 15 14 14 16 17 18 19 19 19 19 20 20 20 21 21 22 23 24 25 26 27 28 29 29 29 30 30 30 31 31 31 31 31 31 31 31 32 32 32 32 32 31 31 32 33 34 35 36 37 39 41 42 43 44 45 46 47 47 48 49 49 48 44 39 35 38 45 51 54 54 53
16 16 16 16 15 15 14 14 15 17 18 19 19 20 20 20 21 21 22 23 24 25 26 27 28 29 30 30 31 31 31 31 32 33 33 32 32 32 32 32 32 32 32 32 33 32 32 33 33 33 34 36 37 38 39 40 42 43 45 46 47 48 49 49 49 49 48 44 39 37 40 45 50 52
17 16 16 16 16 16 15 14 14 14 15 16 18 19 20 21 22 22 23 23 24 25 25 27 28 29 30 31 31 32 32 32 32 33 34 34 34 34 34 34 34 34 33 33 34 33 33 33 34 33 33 34 36 36 37 37 39 41 43 44 46 47 48 48 48 48 49 50 49 45 39 37 39 44
18 17 16 16 16 16 15 15 14 13 13 14 15 16 18 19 21 22 23 24 24 25 26 26 27 28 29 31 31 32 33 33 33 34 34 35 35 36 36 36 35 35 35 35 35 35 35 35 35 35 34 34 35 36 36 37 37 38 39 41 43 45 46 47 47 48 48 49 51 51 48 43 39 37
19 18 17 16 16 16 15 15 14 14 14 14 14 14 15 16 17 19 21 23 24 25 26 27 27 28 29 30 31 32 33 34 34 35 35 35 36 36 37 37 37 37 37 37 37 37 37 37 37 37 36 35 35 35 36 37 37 38 38 38 39 42 44 46 46 47 48 49 50 51 51 51 48 43
19 18 16 16 16 15 15 14 14 14 14 14 14 14 14 14 15 16 17 19 21 24 25 27 27 28 29 29 30 31 32 32 33 35 35 36 36 37 37 38 39 39 39 39 39 39 39 38 38 39 38 38 37 36 36 36 37 38 39 39 38 39 40 43 45 46 47 48 49 50 51 52 52 51
20 18 17 16 15 15 14 14 15 14 14 14 14 14 14 14 14 14 15 16 17 20 23 25 27 28 29 29 30 31 31 32 33 33 35 35 36 37 38 38 39 40 40 41 41 41 41 40 40 40 40 40 39 38 37 37 37 37 38 39 39 39 39 39 41 43 45 47 47 48 50 51 53 53
21 19 18 16 15 15 14 14 14 14 14 15 15 14 15 15 15 14 14 14 14 16 18 21 24 26 28 29 30 30 31 32 32 33 34 35 35 36 37 38 39 40 40 41 42 42 42 42 42 42 42 42 41 41 40 39 38 38 38 39 39 40 40 40 40 40 42 44 46 47 48 50 52 54
23 20 18 17 16 15 14 14 14 15 15 15 15 15 15 15 15 14 13 13 13 14 15 16 18 21 24 26 28 29 30 31 32 33 33 34 35 35 36 37 38 39 39 40 41 42 42 42 43 43 43 43 43 43 42 42 41 40 40 40 40 40 40 40 41 41 41 42 44 45 47 48 50 52
24 21 19 17 16 15 14 14 14 14 15 15 15 15 15 15 15 15 14 13 13 13 14 14 15 16 18 21 23 26 28 29 31 32 33 34 34 35 36 36 37 38 38 39 40 41 41 42 42 43 43 44 44 44 44 43 43 43 43 42 42 42 41 41 42 42 43 43 44 44 46 47 49 50
24 22 20 18 17 16 15 14 14 14 15 15 15 15 15 15 15 15 15 15 15 16 16 16 16 16 16 17 19 21 22 25 27 28 30 31 32 33 34 35 36 37 38 38 39 40 40 41 42 42 43 44 44 45 45 45 45 45 45 45 45 44 44 43 43 43 43 44 45 46 46 47 48 49
24 23 22 19 17 16 16 15 15 15 14 14 15 15 15 15 16 16 16 16 17 17 17 17 18 18 19 19 19 19 20 21 22 23 25 26 28 29 31 32 34 35 36 37 38 39 40 41 42 42 43 44 45 46 46 47 47 47 46 46 46 47 46 46 45 44 44 45 46 47 48 48 48 49
25 24 23 21 19 17 16 16 16 15 15 15 14 14 15 16 17 17 17 17 17 17 17 17 17 18 19 20 21 21 22 22 22 22 23 23 24 25 26 27 29 30 32 34 36 37 38 39 41 42 43 44 45 47 47 48 48 49 49 48 48 48 48 48 48 47 46 46 46 47 48 49 49 48
25 24 23 22 21 19 17 16 16 16 16 16 15 15 15 16 17 18 19 18 18 18 17 17 16 16 17 18 19 20 22 23 24 24 24 24 24 24 24 24 25 25 27 28 30 32 33 35 37 39 41 42 44 45 47 48 49 49 49 50 49 49 49 49 49 48 48 48 47 47 48 49 50 49
26 25 24 22 22 21 19 18 17 16 17 17 16 16 15 15 15 17 18 19 19 19 18 17 16 16 16 15 16 16 17 19 20 22 24 25 26 26 26 26 26 25 25 25 25 26 27 29 31 33 36 38 41 42 44 46 47 48 49 50 50 50 50 49 49 48 48 48 48 48 48 49 50 50
27 26 24 23 22 21 21 19 18 17 17 17 17 17 16 15 15 15 16 17 18 19 19 19 18 17 17 16 16 15 15 16 16 17 19 21 23 24 26 27 28 28 27 27 26 26 26 26 27 28 30 32 35 38 40 42 43 45 47 48 48 48 49 49 48 47 47 47 48 48 48 48 49 50
28 27 25 24 22 21 21 20 19 18 17 17 16 16 16 16 16 16 16 17 17 18 19 19 19 19 18 18 17 17 16 16 16 17 17 18 19 20 22 24 26 28 29 29 28 28 27 26 26 26 27 28 30 32 35 37 39 41 43 44 46 46 46 47 47 46 46 46 46 46 47 47 48 49
29 28 26 25 23 22 21 21 20 19 18 17 17 17 16 16 16 17 18 18 18 18 18 18 19 19 20 20 19 19 18 18 17 17 17 18 18 18 18 19 22 25 27 29 29 28 28 27 26 26 26 26 27 29 31 33 35 37 39 40 42 43 44 44 45 45 45 45 45 45 45 46 47 47
29 29 27 26 24 23 22 22 21 20 19 18 18 18 17 17 16 16 18 19 19 19 19 18 18 18 19 20 21 20 20 19 18 17 17 17 17 17 17 17 18 20 23 25 27 28 27 27 26 25 25 25 26 27 29 30 32 34 35 37 38 40 41 42 43 43 43 44 44 45 45 44 45 45
30 29 28 26 25 24 23 22 22 21 20 19 19 18 18 18 17 16 17 18 19 19 19 19 18 17 17 18 20 21 21 21 20 19 18 17 16 16 16 16 17 17 18 21 24 26 26 26 26 25 24 24 24 25 27 28 29 31 32 34 35 36 38 39 40 41 41 42 43 43 44 44 44 44
Wind_Direction
268 267 266 265 263 263 262 261 262 263 264 265 264 262 260 258 256 253 249 247 246 245 244 245 246 247 249 250 250 251 251 247 237 227 223 221 218 217 218 219 220 222 222 221 223 225 223 221 221 222 220 218 217 217 218 220 220 218 216 216 217 219 222 224 226 227 226 226 228 228 227 225 222 220
268 267 266 265 263 262 262 261 260 261 262 263 264 263 261 258 256 255 252 248 246 245 244 243 244 244 244 246 249 250 253 258 253 234 224 223 221 219 220 222 220 221 223 223 223 224 225 223 223 223 221 220 218 217 218 220 221 221 220 220 220 221 222 223 225 228 227 226 228 228 226 224 221 218
268 267 265 265 264 262 261 261 261 260 260 261 262 262 262 259 257 255 254 252 248 245 245 243 242 242 242 242 244 248 252 253 257 249 227 221 222 221 222 223 222 221 222 221 221 222 222 222 224 224 222 221 219 217 217 218 220 222 222 222 224 224 222 222 223 226 227 227 227 226 224 223 221 218
269 267 265 265 264 263 262 261 261 260 259 259 259 260 261 260 259 255 254 253 251 247 245 244 242 241 240 241 240 241 246 248 251 254 245 230 223 220 221 223 222 222 222 221 219 220 221 221 223 224 223 221 219 218 218 218 219 221 221 221 223 225 223 221 222 224 227 227 225 223 221 220 220 219
272 269 267 265 264 263 263 261 261 260 259 259 258 259 259 260 260 258 254 252 252 250 247 244 243 242 240 240 238 238 239 242 246 249 252 250 234 221 220 221 222 222 221 221 221 220 220 221 222 223 222 221 219 218 219 220 220 220 221 222 222 224 223 220 219 221 224 226 225 222 219 216 217 220
273 271 269 267 264 263 262 261 261 260 259 259 258 258 258 259 259 259 258 254 251 251 250 246 244 242 241 239 238 237 235 236 240 242 246 248 243 231 216 213 223 226 220 220 222 222 221 221 222 223 222 221 221 219 218 220 222 220 220 222 222 224 223 219 217 217 221 224 224 223 221 216 213 216
273 271 270 268 266 264 262 261 260 260 260 260 259 259 258 258 258 258 258 257 253 250 250 249 246 243 242 239 238 238 235 234 235 236 241 242 241 239 220 206 217 222 218 221 221 221 222 221 220 222 221 220 221 220 219 219 222 222 221 221 221 221 221 219 216 216 218 221 221 221 222 220 216 215
273 271 270 269 268 266 263 261 260 259 260 260 259 259 259 258 259 258 257 257 255 252 249 249 248 245 244 241 238 237 235 234 233 231 234 236 239 243 236 227 222 205 210 231 225 219 224 224 221 221 221 220 219 220 220 220 222 223 223 223 222 221 220 217 216 216 216 216 217 218 221 222 220 220
273 272 271 270 268 267 265 263 261 259 259 259 259 259 259 259 258 258 258 257 256 254 250 248 248 247 246 244 241 238 236 235 234 231 231 232 234 240 242 243 240 217 209 226 220 215 221 224 224 223 221 221 221 221 222 221 222 224 224 225 225 224 222 218 215 215 215 215 216 216 218 221 222 223
277 274 272 271 270 269 267 265 263 261 259 258 258 258 258 259 259 258 258 257 255 254 251 248 247 246 246 245 243 241 238 236 235 233 231 230 230 235 238 242 242 235 229 226 220 221 226 225 223 223 223 223 222 222 223 222 223 225 224 225 226 226 225 222 217 215 215 215 215 215 217 220 221 222
283 279 276 274 273 272 270 268 266 264 261 259 257 257 257 258 259 258 257 256 255 253 251 249 247 246 246 245 245 243 240 238 236 235 234 232 230 230 234 236 238 240 241 242 239 240 244 238 228 221 221 222 222 221 222 222 224 225 224 225 225 225 225 224 222 218 216 216 216 216 217 219 220 220
287 284 281 278 276 274 272 270 268 266 264 262 259 257 257 257 258 258 257 256 254 252 250 248 247 246 245 246 245 245 244 241 238 236 235 235 233 231 231 233 235 238 240 242 241 233 236 247 242 227 221 221 222 222 222 222 223 223 224 224 224 225 224 223 224 222 220 218 218 218 218 218 220 220
287 284 283 281 278 276 273 271 269 267 265 264 261 259 257 256 257 258 257 257 255 253 250 247 246 245 245 245 245 245 245 244 242 239 237 236 236 235 233 232 233 235 236 238 240 234 232 241 247 239 227 222 222 223 223 224 224 223 224 223 223 224 223 221 221 221 222 222 222 221 220 220 221 222
287 284 282 280 277 275 273 270 268 266 264 263 262 260 258 256 255 256 256 257 255 253 251 248 245 244 244 245 245 245 245 245 244 242 240 238 237 236 236 234 233 234 235 236 238 238 237 239 242 244 236 224 221 222 223 224 224 224 225 225 225 225 224 222 220 220 221 222 223 223 222 221 222 223
288 285 282 279 276 273 271 269 267 264 263 261 260 258 258 256 255 254 254 255 254 253 251 249 246 243 242 243 244 244 244 244 243 243 241 240 238 237 236 236 234 233 233 234 236 237 238 238 239 242 242 228 221 221 223 223 223 222 222 224 226 225 225 225 223 221 221 221 222 224 223 222 222 223
290 286 283 280 277 273 270 268 265 263 261 259 257 255 253 254 254 253 252 253 253 252 250 248 247 244 242 241 241 241 242 243 243 242 242 241 240 239 238 236 235 234 233 233 233 234 236 238 238 238 240 235 223 221 223 223 223 222 220 222 225 226 226 226 225 223 222 222 222 223 224 224 224 223
294 290 285 282 278 275 272 268 265 262 259 257 255 252 250 249 250 251 251 251 251 251 249 247 246 245 242 239 238 238 239 240 241 242 241 241 241 240 240 238 236 235 235 233 232 232 233 235 237 236 236 236 228 221 223 225 225 225 224 224 225 227 227 227 227 225 224 223 223 224 224 225 226 225
297 294 289 284 280 276 273 270 267 263 259 256 253 250 248 246 246 247 249 249 249 249 248 247 245 244 243 240 237 236 237 238 240 241 241 241 241 241 240 239 238 236 236 236 234 233 233 233 236 236 235 236 233 224 221 224 225 225 225 227 228 228 228 228 228 227 227 225 225 225 225 226 227 227
298 295 292 288 283 279 275 271 268 265 261 257 254 250 247 245 244 244 245 246 247 247 247 246 244 243 243 242 239 237 237 237 239 241 241 240 241 241 240 240 239 237 237 237 236 236 235 234 236 237 236 237 238 233 225 223 223 222 222 225 228 229 229 229 229 229 229 228 227 227 227 227 228 229
297 294 293 291 288 284 279 274 270 266 263 259 255 252 248 245 244 244 243 243 244 244 245 246 245 243 243 243 242 240 238 237 238 239 240 239 239 239 240 240 239 238 236 236 236 236 236 236 236 238 238 238 240 240 236 230 226 222 220 222 226 229 230 231 231 231 230 230 230 229 229 229 229 229
297 294 291 290 289 287 284 279 274 268 264 260 257 254 250 246 244 244 244 243 243 243 243 243 244 244 243 243 243 242 240 238 238 238 239 239 238 238 238 238 238 238 237 236 236 236 236 236 236 237 238 239 241 243 242 239 234 229 224 222 223 227 229 230 230 230 230 230 231 231 232 232 232 231
298 296 293 290 287 285 282 280 277 272 266 260 256 254 252 249 246 244 244 243 242 243 242 242 242 243 243 242 242 242 241 240 239 238 238 239 238 237 237 238 238 238 237 236 236 236 236 236 236 237 238 239 240 242 243 243 241 239 235 228 223 225 229 231 230 229 229 229 230 230 232 234 235 234
302 299 295 291 288 284 281 277 275 272 269 263 258 254 251 249 247 245 244 243 242 242 242 242 242 242 241 242 241 241 240 240 239 238 237 237 237 237 237 238 238 237 237 236 236 237 237 236 236 237 238 239 240 241 242 243 243 243 243 239 233 229 229 231 232 231 229 229 230 229 228 230 233 235
308 306 301 295 289 285 282 278 273 270 268 266 263 258 253 249 247 245 244 243 242 242 241 241 242 242 241 241 241 240 239 238 238 238 237 237 237 237 237 237 238 238 237 236 236 236 237 238 237 237 239 240 240 241 241 242 242 243 245 246 244 240 236 233 233 232 230 229 230 229 226 225 228 232
309 309 309 304 295 287 281 277 274 270 267 264 262 259 256 253 249 247 244 243 242 241 241 240 240 240 240 240 240 240 239 239 238 238 238 238 237 237 237 237 238 239 239 239 238 236 237 238 238 238 239 240 241 241 241 241 241 242 244 246 247 247 245 241 239 237 233 230 230 231 229 226 226 229
308 307 308 307 303 295 285 278 274 271 268 265 261 258 257 255 253 250 246 244 242 240 240 240 239 239 239 239 239 239 239 240 239 239 239 238 238 238 238 238 238 239 240 241 241 239 238 237 238 238 238 240 241 242 243 242 242 241 242 243 245 247 248 247 245 244 241 236 231 231 232 231 229 229
311 310 309 306 304 301 295 287 280 274 270 267 263 260 257 255 253 251 249 246 244 241 240 240 240 239 239 239 238 238 238 239 240 240 240 240 240 240 239 240 239 239 240 241 241 242 241 240 239 238 238 239 241 243 244 244 244 242 242 242 243 244 246 247 247 247 246 244 240 235 233 234 234 232
315 312 311 308 303 300 300 297 291 283 274 268 265 262 259 257 254 252 251 249 247 245 243 241 241 240 240 239 239 239 239 239 239 240 241 241 242 242 242 241 241 241 241 241 241 242 242 243 242 240 238 237 238 241 244 246 246 245 244 243 243 244 245 246 246 247 246 246 246 243 240 238 237 236
319 314 311 308 304 299 298 298 295 289 281 274 269 265 261 259 257 254 252 250 249 247 246 244 243 242 241 240 240 239 239 240 239 239 240 240 242 243 243 243 243 243 242 242 242 242 242 243 245 244 242 240 238 238 241 244 247 247 245 244 244 244 245 245 246 246 246 247 248 248 246 244 242 241
325 317 310 307 304 300 296 294 293 290 285 280 276 272 267 263 261 258 255 253 250 249 248 247 246 245 243 242 241 240 240 240 240 240 240 240 241 242 243 243 244 244 244 244 244 243 243 243 245 246 246 245 243 241 240 241 244 247 247 247 245 245 245 246 246 245 245 246 247 248 248 247 245 243
331 324 314 307 305 303 297 291 289 289 287 285 281 277 274 270 267 264 261 257 254 251 249 247 246 245 245 244 243 242 241 241 241 241 241 241 241 242 243 243 243 244 244 244 245 245 245 244 245 245 246 247 247 246 244 242 242 244 247 248 248 247 246 246 246 246 246 245 245 246 247 248 247 245
335 331 324 314 308 306 301 292 288 286 286 286 284 280 277 274 272 271 269 266 262 257 252 249 247 246 245 245 244 243 243 242 242 242 242 242 242 242 243 243 243 243 244 244 245 246 246 246 245 245 246 247 247 248 248 247 246 245 245 247 249 250 249 248 247 247 247 247 246 245 245 246 246 246
340 335 330 323 316 312 307 297 289 285 284 284 283 282 279 275 272 271 273 274 273 268 261 254 250 247 246 245 244 244 243 243 243 243 243 243 243 243 243 244 244 244 244 244 245 245 246 246 247 246 246 246 247 247 248 248 249 249 248 247 247 249 250 251 251 249 248 248 247 246 246 245 245 245
345 338 332 328 322 317 313 304 294 286 282 281 281 282 280 277 273 269 268 270 273 274 271 264 257 252 248 247 245 245 244 244 244 244 243 243 243 243 243 244 244 244 244 244 244 245 245 246 247 247 247 247 247 247 247 247 248 249 250 250 249 248 248 250 251 252 251 250 249 247 246 246 245 244
350 344 336 329 325 321 317 310 301 291 284 279 278 279 278 276 274 269 265 263 264 266 268 267 264 259 254 250 248 246 245 245 245 245 244 244 244 244 244 244 245 245 245 245 244 244 245 245 246 247 247 248 248 248 248 247 247 248 249 250 251 250 249 249 249 251 251 252 251 249 247 246 245 245
352 349 343 334 327 322 318 314 307 299 290 282 277 276 275 274 273 269 265 262 260 259 260 261 261 261 259 255 252 249 247 245 244 244 245 245 245 245 245 246 246 246 246 246 245 245 245 245 246 246 247 247 248 249 249 248 248 249 249 250 250 251 251 250 249 249 249 250 251 251 250 248 246 245
352 351 348 343 334 324 318 314 309 305 300 292 283 277 274 272 271 269 266 263 261 260 259 258 258 258 257 257 255 252 250 248 246 245 244 244 244 245 245 246 246 247 247 247 246 246 246 246 246 246 246 247 247 248 249 249 249 250 250 250 250 250 251 251 251 250 249 248 248 250 251 251 250 247
352 350 348 346 342 333 323 313 308 305 304 301 295 287 279 273 270 269 268 266 265 264 262 260 259 258 257 256 255 254 253 251 250 248 246 246 245 245 245 245 246 246 247 247 247 247 247 247 247 247 246 246 246 247 248 248 249 249 250 251 251 251 250 250 251 251 250 249 248 247 248 250 251 251
351 349 347 346 344 340 333 321 311 305 302 301 299 295 288 280 273 269 267 266 266 265 264 262 260 258 257 256 255 254 254 253 252 251 249 248 248 247 246 246 246 245 246 246 247 247 246 247 247 247 247 247 247 247 247 247 248 248 249 250 250 251 251 250 250 250 250 250 249 247 246 247 249 251
349 348 347 345 343 341 338 332 322 312 304 298 294 291 288 284 280 275 270 267 264 263 263 262 260 257 256 254 253 253 254 254 254 253 252 250 249 248 248 248 247 247 247 246 246 246 246 246 247 248 248 248 248 247 247 247 247 247 247 248 248 249 250 250 250 250 249 249 249 248 247 246 246 248
348 347 346 345 343 340 337 334 329 322 312 302 295 289 285 282 282 281 279 274 270 266 263 261 259 257 255 253 251 251 251 252 254 255 255 253 251 250 249 248 248 248 248 248 247 247 247 248 248 249 249 250 249 249 248 247 247 247 247 246 246 247 248 249 249 249 249 248 248 247 247 247 246 246
348 347 346 345 343 340 335 332 329 326 321 313 305 298 292 286 283 281 281 279 276 272 267 262 258 256 254 253 251 250 251 252 253 255 256 256 256 254 252 250 248 248 248 248 248 248 248 249 249 250 251 251 251 250 249 248 247 247 246 245 245 245 245 246 247 247 247 247 247 246 245 246 246 246
347 347 346 344 343 339 335 331 328 326 323 320 316 310 304 297 290 283 279 277 276 275 272 267 262 257 254 252 252 252 252 253 254 256 257 257 257 257 257 255 251 249 247 246 247 247 248 248 249 250 251 251 251 251 250 249 248 247 246 245 244 243 243 243 244 245 245 246 246 246 245 245 245 245
347 347 345 343 341 339 334 330 327 325 323 320 318 316 311 306 299 290 282 276 272 272 272 271 267 262 257 254 252 252 253 254 255 257 259 259 259 257 257 257 256 253 249 246 246 246 246 247 248 249 250 251 251 250 249 249 248 247 246 245 244 243 242 242 242 242 243 244 245 245 245 244 244 244
346 346 345 342 340 337 334 329 326 324 322 319 318 316 314 311 306 299 290 280 272 267 267 268 267 265 262 258 254 252 252 252 253 255 257 259 261 261 259 257 256 255 253 249 246 246 246 247 247 248 249 249 250 250 249 248 248 247 246 245 244 243 242 242 241 241 242 243 244 245 245 245 244 244
Height
5796 5796 5797 5797 5798 5798 5799 5799 5800 5800 5800 5800 5801 5802 5804 5806 5806 5807 5808 5810 5811 5812 5812 5813 5814 5814 5815 5815 5816 5817 5817 5818 5819 5822 5824 5825 5827 5831 5834 5836 5839 5841 5844 5847 5849 5851 5853 5854 5856 5858 5859 5860 5861 5862 5865 5868 5870 5872 5874 5876 5878 5881 5883 5885 5887 5890 5891 5893 5895 5897 5898 5900 5902 5904
5792 5792 5792 5793 5793 5794 5794 5795 5796 5796 5796 5797 5797 5798 5799 5801 5802 5803 5804 5806 5807 5808 5809 5810 5811 5811 5813 5813 5814 5815 5816 5817 5818 5819 5821 5823 5825 5827 5830 5833 5836 5840 5842 5845 5847 5849 5851 5852 5853 5856 5858 5859 5859 5860 5862 5865 5868 5870 5872 5874 5876 5878 5881 5883 5885 5887 5889 5891 5892 5894 5896 5898 5900 5903
5786 5787 5788 5788 5789 5789 5790 5791 5791 5792 5793 5793 5793 5793 5794 5796 5798 5799 5800 5802 5803 5804 5805 5806 5807 5808 5810 5811 5812 5813 5814 5815 5817 5817 5818 5820 5822 5825 5827 5829 5833 5836 5838 5840 5843 5845 5847 5849 5850 5852 5855 5857 5858 5858 5859 5862 5865 5867 5870 5872 5874 5876 5878 5880 5882 5884 5887 5889 5890 5892 5894 5896 5898 5901
5781 5782 5783 5783 5784 5785 5785 5786 5786 5787 5788 5789 5790 5790 5790 5791 5793 5794 5795 5797 5799 5800 5801 5803 5804 5805 5807 5808 5809 5811 5812 5813 5814 5816 5817 5818 5819 5821 5823 5826 5829 5832 5833 5836 5838 5840 5843 5846 5848 5849 5851 5853 5855 5856 5857 5860 5862 5865 5867 5870 5872 5873 5875 5877 5879 5882 5884 5886 5888 5889 5891 5894 5896 5899
5775 5776 5778 5779 5779 5780 5780 5781 5781 5782 5783 5784 5785 5786 5787 5787 5788 5789 5791 5792 5794 5795 5797 5798 5799 5801 5803 5804 5806 5808 5810 5811 5812 5813 5815 5815 5817 5818 5820 5822 5825 5827 5828 5831 5833 5836 5839 5842 5845 5847 5848 5849 5852 5854 5856 5857 5860 5863 5865 5867 5869 5871 5873 5875 5877 5879 5882 5884 5886 5888 5889 5891 5894 5897
5770 5771 5772 5774 5774 5775 5775 5776 5776 5777 5778 5779 5781 5782 5783 5783 5784 5785 5786 5788 5790 5791 5792 5794 5795 5796 5798 5800 5803 5804 5807 5809 5810 5811 5812 5813 5815 5816 5817 5819 5821 5822 5824 5826 5829 5833 5836 5839 5842 5844 5846 5848 5849 5852 5854 5855 5858 5860 5863 5864 5866 5868 5871 5873 5875 5877 5879 5881 5884 5887 5888 5890 5892 5895
5766 5766 5767 5768 5769 5770 5770 5771 5772 5773 5774 5774 5776 5777 5778 5779 5780 5781 5782 5783 5785 5787 5787 5789 5790 5792 5793 5796 5798 5800 5803 5805 5807 5809 5810 5811 5812 5812 5813 5815 5817 5818 5821 5824 5826 5830 5833 5835 5838 5840 5843 5845 5846 5848 5850 5853 5855 5857 5859 5861 5862 5865 5868 5870 5872 5874 5876 5879 5882 5885 5887 5889 5890 5892
5760 5761 5762 5763 5764 5765 5765 5766 5767 5768 5769 5770 5771 5772 5774 5775 5775 5777 5778 5779 5781 5782 5784 5784 5786 5787 5789 5791 5794 5796 5798 5801 5803 5806 5808 5808 5809 5808 5809 5812 5814 5815 5818 5821 5822 5825 5828 5830 5833 5835 5838 5841 5843 5845 5848 5850 5852 5854 5856 5858 5860 5862 5865 5867 5869 5872 5874 5877 5879 5882 5885 5887 5889 5891
5755 5756 5757 5758 5759 5760 5760 5761 5763 5763 5764 5765 5766 5768 5769 5770 5771 5772 5774 5775 5777 5778 5780 5781 5782 5783 5785 5786 5789 5791 5794 5796 5799 5802 5804 5806 5806 5805 5805 5808 5811 5812 5814 5815 5816 5819 5822 5825 5828 5831 5834 5837 5839 5842 5845 5848 5850 5851 5854 5856 5858 5860 5862 5864 5866 5869 5871 5874 5877 5879 5882 5885 5886 5889
5750 5751 5752 5753 5754 5755 5756 5757 5758 5758 5760 5761 5762 5763 5764 5765 5766 5768 5769 5771 5773 5774 5776 5777 5778 5779 5781 5782 5784 5787 5789 5792 5794 5797 5800 5802 5804 5804 5803 5805 5807 5807 5808 5811 5811 5814 5818 5820 5823 5826 5830 5833 5836 5838 5841 5844 5846 5848 5851 5854 5856 5858 5860 5862 5864 5866 5869 5871 5874 5877 5879 5881 5883 5886
5746 5747 5748 5748 5749 5750 5751 5752 5753 5754 5755 5756 5757 5759 5760 5760 5762 5763 5765 5766 5768 5770 5771 5773 5774 5775 5777 5778 5780 5782 5784 5787 5790 5792 5795 5798 5800 5802 5802 5803 5804 5804 5805 5807 5809 5813 5816 5817 5819 5822 5825 5828 5831 5834 5836 5840 5842 5845 5848 5851 5853 5855 5858 5860 5862 5864 5866 5868 5871 5873 5876 5878 5880 5882
5743 5743 5743 5744 5744 5745 5747 5748 5748 5749 5750 5751 5752 5754 5755 5756 5757 5758 5760 5762 5764 5766 5767 5769 5770 5771 5773 5774 5776 5778 5780 5782 5785 5788 5791 5793 5796 5798 5800 5801 5802 5802 5803 5805 5807 5812 5816 5815 5815 5819 5821 5823 5826 5829 5833 5836 5839 5841 5844 5846 5849 5851 5854 5857 5859 5861 5863 5866 5868 5870 5872 5874 5877 5879
5740 5740 5740 5740 5740 5741 5742 5743 5744 5745 5745 5746 5748 5749 5750 5751 5752 5754 5755 5757 5759 5761 5763 5764 5766 5767 5769 5770 5772 5774 5776 5778 5780 5783 5786 5788 5791 5793 5795 5797 5799 5800 5802 5803 5805 5809 5811 5811 5812 5815 5817 5819 5822 5826 5829 5832 5835 5837 5839 5842 5844 5847 5849 5852 5854 5857 5860 5862 5865 5867 5870 5872 5874 5876
5737 5737 5736 5736 5736 5737 5738 5739 5740 5741 5741 5742 5743 5745 5746 5747 5748 5749 5751 5752 5754 5756 5758 5760 5762 5763 5765 5767 5769 5771 5772 5774 5776 5778 5781 5783 5786 5788 5790 5793 5795 5797 5798 5800 5802 5804 5806 5808 5809 5811 5812 5814 5817 5821 5824 5827 5831 5833 5836 5839 5841 5843 5846 5848 5851 5853 5856 5859 5861 5864 5867 5869 5871 5874
5734 5734 5733 5733 5733 5733 5734 5734 5736 5737 5738 5739 5740 5740 5741 5743 5744 5745 5746 5748 5750 5752 5754 5755 5757 5759 5761 5764 5765 5767 5769 5770 5772 5774 5776 5779 5781 5783 5785 5787 5790 5792 5794 5796 5798 5800 5802 5804 5805 5807 5809 5810 5813 5816 5819 5822 5825 5829 5832 5835 5837 5839 5842 5845 5848 5850 5852 5855 5858 5860 5863 5865 5868 5871
5731 5730 5730 5730 5730 5730 5730 5731 5732 5733 5734 5735 5736 5737 5738 5739 5739 5740 5742 5743 5745 5747 5749 5751 5753 5755 5758 5760 5762 5763 5765 5766 5768 5770 5772 5774 5777 5779 5781 5783 5785 5787 5789 5791 5793 5795 5797 5799 5801 5804 5806 5807 5809 5811 5814 5817 5820 5824 5827 5831 5833 5835 5839 5841 5844 5847 5849 5852 5854 5857 5859 5862 5865 5867
5727 5727 5727 5727 5727 5727 5727 5727 5728 5729 5730 5731 5732 5733 5734 5735 5736 5737 5738 5739 5741 5743 5745 5747 5749 5751 5753 5755 5757 5759 5761 5762 5764 5766 5768 5770 5773 5775 5777 5779 5781 5783 5784 5786 5789 5791 5793 5795 5797 5799 5801 5803 5804 5807 5810 5812 5816 5819 5823 5826 5829 5832 5835 5837 5840 5843 5845 5848 5850 5853 5856 5859 5861 5864
5725 5724 5724 5724 5724 5724 5724 5724 5725 5725 5726 5727 5728 5729 5730 5731 5732 5733 5734 5735 5737 5739 5741 5743 5745 5747 5748 5750 5752 5755 5757 5758 5760 5762 5764 5767 5769 5771 5773 5775 5777 5779 5780 5782 5784 5787 5789 5791 5793 5795 5797 5798 5800 5802 5805 5807 5810 5814 5818 5821 5824 5827 5830 5832 5835 5838 5841 5843 5846 5848 5851 5854 5857 5860
5722 5721 5721 5721 5721 5721 5721 5721 5721 5722 5723 5724 5725 5726 5727 5728 5729 5729 5730 5731 5733 5735 5736 5739 5741 5742 5744 5745 5748 5750 5753 5755 5756 5758 5760 5763 5765 5767 5769 5771 5773 5775 5777 5778 5780 5782 5785 5787 5789 5791 5792 5794 5795 5797 5799 5801 5804 5808 5811 5815 5818 5821 5824 5827 5830 5833 5836 5839 5841 5844 5846 5849 5852 5855
5719 5718 5718 5718 5718 5718 5718 5718 5718 5719 5719 5720 5721 5722 5723 5724 5725 5726 5726 5728 5729 5731 5733 5734 5736 5738 5739 5741 5743 5746 5748 5750 5752 5754 5756 5758 5761 5763 5765 5767 5768 5771 5773 5775 5776 5778 5780 5782 5784 5786 5788 5789 5790 5792 5794 5796 5799 5802 5805 5809 5812 5815 5819 5822 5825 5828 5831 5833 5836 5839 5842 5844 5847 5850
5716 5715 5715 5715 5715 5715 5715 5715 5715 5716 5716 5717 5717 5718 5719 5721 5722 5722 5723 5724 5726 5727 5729 5731 5732 5734 5735 5737 5739 5741 5743 5745 5748 5750 5752 5754 5757 5759 5761 5762 5764 5766 5769 5771 5772 5774 5776 5778 5780 5782 5783 5785 5786 5788 5790 5792 5795 5797 5800 5803 5806 5809 5813 5816 5818 5821 5824 5827 5831 5834 5837 5840 5842 5844
5713 5712 5712 5712 5712 5712 5712 5712 5712 5712 5713 5713 5714 5715 5716 5717 5718 5719 5719 5721 5722 5724 5725 5727 5728 5730 5732 5733 5735 5737 5739 5741 5743 5746 5748 5750 5753 5755 5757 5759 5761 5763 5765 5767 5768 5770 5772 5774 5776 5778 5779 5780 5782 5784 5786 5788 5790 5792 5794 5797 5800 5803 5806 5809 5811 5814 5818 5822 5825 5829 5833 5836 5837 5839
5711 5710 5709 5709 5709 5709 5709 5709 5709 5709 5710 5710 5711 5712 5712 5713 5714 5715 5716 5717 5719 5720 5722 5723 5725 5726 5728 5729 5731 5733 5735 5737 5739 5741 5743 5746 5748 5751 5753 5755 5757 5759 5761 5762 5764 5766 5768 5770 5772 5774 5775 5776 5778 5780 5782 5784 5786 5788 5789 5792 5795 5797 5800 5803 5805 5808 5812 5816 5819 5822 5827 5829 5830 5833
5709 5708 5707 5706 5706 5706 5705 5705 5706 5706 5707 5707 5708 5708 5709 5709 5710 5712 5713 5714 5716 5717 5718 5719 5721 5722 5724 5725 5727 5729 5731 5733 5735 5737 5739 5742 5744 5746 5748 5750 5752 5754 5756 5758 5760 5762 5764 5765 5768 5770 5771 5773 5774 5776 5778 5780 5783 5784 5785 5787 5790 5792 5795 5798 5800 5803 5806 5809 5811 5814 5819 5822 5824 5827
5707 5706 5705 5704 5703 5703 5702 5702 5702 5703 5703 5704 5705 5705 5705 5706 5707 5709 5710 5711 5712 5713 5714 5715 5717 5718 5720 5722 5724 5726 5727 5729 5731 5733 5735 5738 5740 5742 5744 5746 5748 5750 5751 5754 5756 5758 5760 5761 5763 5765 5767 5769 5770 5772 5774 5776 5778 5780 5782 5783 5785 5787 5790 5793 5796 5798 5801 5803 5806 5808 5812 5815 5819 5821
5704 5704 5703 5702 5701 5700 5699 5699 5699 5699 5700 5700 5701 5702 5702 5703 5704 5705 5706 5707 5708 5709 5710 5711 5713 5714 5716 5718 5720 5722 5723 5725 5727 5729 5731 5733 5735 5737 5739 5742 5744 5746 5747 5749 5752 5754 5755 5757 5759 5761 5763 5765 5766 5767 5769 5771 5774 5776 5778 5779 5781 5783 5785 5788 5791 5793 5796 5798 5800 5803 5806 5810 5813 5816
5702 5701 5700 5700 5699 5698 5697 5697 5697 5697 5697 5697 5697 5698 5699 5700 5701 5701 5702 5703 5704 5705 5706 5708 5709 5710 5712 5714 5716 5718 5719 5721 5723 5725 5727 5729 5731 5733 5735 5737 5739 5741 5743 5745 5747 5749 5751 5752 5754 5757 5759 5761 5762 5763 5765 5766 5769 5771 5773 5775 5777 5779 5781 5783 5786 5789 5791 5793 5795 5798 5801 5804 5807 5810
5700 5699 5698 5697 5696 5696 5695 5695 5694 5694 5694 5694 5694 5695 5695 5696 5697 5698 5699 5699 5700 5701 5703 5704 5705 5706 5708 5709 5711 5713 5715 5717 5719 5720 5722 5724 5726 5728 5730 5732 5734 5736 5738 5740 5742 5744 5746 5747 5749 5752 5755 5757 5758 5760 5761 5762 5764 5766 5768 5771 5773 5775 5776 5779 5781 5783 5786 5788 5790 5793 5796 5799 5802 5805
5698 5697 5696 5695 5694 5693 5693 5693 5692 5692 5691 5691 5691 5692 5692 5693 5693 5694 5695 5696 5697 5698 5699 5700 5701 5702 5704 5705 5707 5709 5710 5712 5714 5716 5718 5719 5721 5722 5724 5727 5729 5731 5733 5735 5737 5739 5741 5742 5744 5747 5749 5752 5754 5756 5757 5758 5759 5761 5763 5766 5768 5770 5772 5774 5776 5778 5781 5783 5785 5788 5791 5794 5797 5800
5696 5694 5693 5692 5691 5691 5691 5690 5690 5689 5689 5689 5689 5689 5689 5689 5690 5690 5691 5692 5693 5694 5695 5696 5697 5698 5699 5701 5702 5704 5706 5707 5709 5711 5713 5714 5716 5717 5719 5721 5723 5725 5728 5730 5732 5734 5736 5738 5740 5742 5744 5746 5749 5751 5753 5755 5756 5756 5758 5761 5763 5766 5767 5769 5771 5773 5776 5778 5780 5782 5785 5788 5792 5796
5694 5692 5691 5690 5689 5688 5688 5688 5687 5687 5686 5686 5686 5686 5686 5687 5687 5687 5687 5688 5689 5689 5690 5691 5692 5694 5695 5696 5698 5699 5701 5703 5704 5706 5707 5709 5711 5713 5714 5716 5718 5720 5722 5724 5726 5728 5731 5733 5735 5737 5739 5741 5744 5746 5749 5751 5752 5753 5754 5756 5758 5760 5763 5765 5767 5768 5771 5773 5775 5777 5779 5782 5786 5789
5692 5691 5689 5688 5687 5686 5686 5685 5685 5685 5684 5684 5684 5684 5684 5684 5684 5684 5684 5685 5685 5685 5686 5687 5688 5689 5690 5692 5693 5695 5696 5698 5699 5701 5702 5704 5706 5708 5709 5711 5712 5715 5717 5719 5721 5723 5725 5728 5730 5732 5734 5736 5738 5741 5743 5745 5747 5749 5751 5752 5753 5755 5757 5760 5762 5764 5765 5768 5770 5772 5774 5776 5779 5782
5691 5689 5688 5686 5685 5685 5684 5683 5683 5682 5682 5682 5681 5681 5681 5681 5681 5681 5681 5682 5682 5682 5683 5683 5684 5685 5686 5687 5688 5690 5691 5693 5694 5696 5697 5699 5701 5703 5704 5706 5707 5709 5712 5714 5716 5718 5720 5722 5724 5726 5729 5731 5733 5736 5738 5740 5742 5744 5745 5747 5749 5750 5752 5754 5756 5758 5760 5762 5764 5767 5769 5771 5773 5775
5690 5688 5686 5685 5684 5683 5682 5681 5681 5680 5680 5679 5679 5679 5679 5679 5679 5679 5679 5679 5679 5679 5679 5680 5680 5681 5682 5683 5684 5685 5686 5688 5689 5691 5692 5694 5695 5697 5699 5700 5702 5704 5706 5708 5710 5712 5715 5717 5719 5720 5723 5725 5727 5730 5732 5734 5736 5738 5739 5741 5743 5745 5747 5749 5750 5752 5754 5757 5759 5761 5762 5764 5767 5769
5689 5687 5685 5684 5682 5681 5680 5680 5679 5678 5678 5677 5677 5677 5677 5677 5677 5676 5676 5676 5676 5676 5677 5677 5677 5678 5678 5679 5680 5681 5682 5683 5684 5686 5687 5689 5690 5692 5693 5695 5697 5698 5700 5702 5704 5707 5709 5711 5713 5715 5717 5719 5721 5723 5725 5728 5730 5731 5733 5735 5737 5739 5742 5744 5745 5747 5748 5750 5752 5754 5756 5758 5760 5762
5689 5687 5684 5683 5681 5680 5679 5678 5677 5676 5675 5675 5675 5675 5675 5675 5674 5674 5674 5673 5673 5673 5674 5674 5675 5675 5675 5676 5676 5677 5678 5679 5680 5681 5682 5684 5685 5687 5688 5690 5691 5693 5695 5697 5699 5701 5704 5706 5708 5710 5711 5713 5715 5717 5718 5720 5723 5725 5727 5728 5730 5733 5735 5737 5740 5741 5742 5744 5745 5747 5749 5751 5754 5756
5689 5686 5684 5682 5680 5678 5677 5676 5675 5674 5673 5673 5673 5672 5672 5672 5672 5671 5671 5671 5671 5671 5671 5671 5672 5672 5672 5673 5673 5674 5675 5675 5676 5677 5678 5679 5681 5682 5683 5685 5686 5688 5690 5691 5693 5696 5698 5700 5702 5704 5705 5707 5709 5710 5711 5713 5716 5718 5720 5722 5724 5726 5728 5731 5733 5735 5736 5738 5739 5741 5742 5745 5747 5749
5688 5685 5683 5681 5679 5677 5675 5674 5673 5672 5671 5671 5670 5670 5670 5670 5669 5668 5668 5668 5668 5668 5668 5668 5669 5669 5669 5670 5670 5671 5672 5672 5673 5674 5675 5676 5677 5678 5679 5680 5682 5683 5684 5686 5688 5690 5692 5694 5695 5697 5699 5700 5702 5704 5705 5707 5710 5711 5713 5715 5717 5719 5722 5724 5726 5728 5730 5732 5733 5735 5737 5738 5740 5742
5687 5685 5682 5680 5678 5676 5674 5672 5671 5670 5669 5669 5668 5668 5667 5667 5666 5666 5665 5665 5665 5665 5665 5665 5666 5666 5666 5666 5667 5667 5668 5669 5670 5670 5672 5673 5674 5674 5675 5676 5677 5679 5680 5681 5683 5684 5686 5688 5689 5690 5692 5693 5695 5697 5699 5701 5703 5705 5707 5709 5710 5712 5714 5717 5719 5721 5723 5725 5727 5729 5731 5733 5734 5736
5686 5683 5681 5679 5677 5675 5673 5671 5669 5668 5667 5666 5666 5665 5665 5664 5664 5663 5663 5662 5662 5662 5662 5662 5663 5663 5663 5663 5664 5664 5665 5665 5666 5667 5668 5669 5670 5671 5671 5672 5674 5675 5676 5677 5678 5680 5681 5682 5683 5684 5686 5687 5689 5691 5693 5695 5697 5699 5701 5702 5704 5706 5708 5710 5712 5715 5717 5718 5720 5722 5724 5726 5728 5730
5685 5682 5680 5678 5676 5673 5671 5669 5668 5666 5665 5664 5663 5662 5662 5662 5661 5660 5660 5659 5659 5659 5659 5659 5660 5660 5660 5661 5661 5662 5662 5663 5663 5664 5664 5665 5666 5667 5668 5669 5670 5671 5672 5673 5674 5675 5677 5678 5679 5680 5681 5682 5684 5685 5687 5689 5690 5692 5694 5695 5697 5699 5701 5703 5706 5708 5710 5711 5714 5716 5717 5719 5722 5724
5683 5681 5679 5676 5674 5672 5670 5668 5666 5664 5663 5661 5660 5659 5659 5659 5658 5658 5657 5657 5656 5656 5656 5656 5657 5657 5657 5658 5658 5659 5659 5660 5661 5661 5662 5662 5662 5663 5664 5665 5665 5666 5667 5669 5670 5671 5672 5674 5675 5676 5677 5678 5679 5680 5681 5683 5684 5686 5687 5689 5691 5693 5695 5697 5700 5702 5703 5705 5707 5709 5711 5713 5715 5717
5682 5679 5677 5675 5673 5670 5668 5666 5664 5662 5661 5659 5658 5656 5656 5655 5655 5654 5654 5654 5654 5653 5653 5653 5654 5654 5654 5655 5655 5656 5656 5657 5658 5658 5659 5659 5660 5660 5661 5661 5662 5662 5663 5664 5666 5667 5668 5669 5671 5672 5673 5674 5675 5676 5676 5677 5679 5680 5681 5682 5684 5687 5689 5692 5694 5696 5697 5698 5700 5702 5705 5707 5709 5711
5681 5678 5676 5673 5671 5669 5667 5664 5662 5660 5659 5657 5655 5654 5653 5652 5652 5651 5651 5650 5650 5650 5650 5650 5651 5651 5651 5652 5652 5653 5653 5654 5655 5656 5656 5656 5657 5658 5658 5658 5659 5659 5660 5660 5661 5663 5664 5665 5666 5668 5669 5670 5671 5671 5672 5673 5673 5674 5676 5677 5679 5681 5683 5686 5688 5690 5691 5692 5694 5696 5698 5700 5702 5704
5679 5677 5674 5671 5669 5667 5665 5662 5660 5658 5656 5655 5653 5652 5650 5650 5649 5648 5648 5647 5647 5647 5647 5647 5648 5648 5648 5649 5649 5650 5650 5651 5652 5652 5653 5654 5654 5655 5655 5656 5656 5656 5657 5657 5658 5659 5660 5661 5662 5663 5665 5665 5666 5667 5668 5668 5669 5670 5671 5673 5674 5676 5678 5680 5682 5684 5686 5687 5689 5690 5692 5694 5696 5698